Year,Month,Day,Hour,Minute,Value (Times are PST for windspeed in km/hr)
2008,10,05,00,00,0.30
2008,10,05,00,01,2.70
2008,10,05,00,02,4.10
2008,10,05,00,03,3.20
2008,10,05,00,04,2.60
2008,10,05,00,05,2.70
2008,10,05,00,06,1.70
2008,10,05,00,07,1.60
2008,10,05,00,08,0.50
2008,10,05,00,09,2.20
2008,10,05,00,10,2.30
2008,10,05,00,11,1.50
2008,10,05,00,12,0.00
2008,10,05,01,02,0.00
2008,10,05,01,03,0.00
2008,10,05,01,04,0.00
2008,10,05,01,05,4.30
2008,10,05,01,06,2.10
2008,10,05,01,07,1.80
2008,10,05,01,08,0.20
2008,10,05,01,09,0.00
2008,10,05,01,10,1.40
2008,10,05,01,11,2.50
2008,10,05,01,12,2.20
2008,10,05,01,13,0.80
2008,10,05,01,14,0.00
2008,10,05,01,15,0.00
2008,10,05,01,16,2.70
2008,10,05,01,17,2.10
2008,10,05,01,18,0.60
2008,10,05,01,19,1.70
2008,10,05,01,20,3.00
2008,10,05,01,21,2.30
2008,10,05,01,22,3.90
2008,10,05,01,23,5.70
2008,10,05,01,24,6.40
2008,10,05,01,25,5.30
2008,10,05,01,26,2.50
2008,10,05,01,27,1.50
2008,10,05,01,28,0.00
2008,10,05,01,29,0.00
2008,10,05,01,30,0.30
2008,10,05,01,31,3.70
2008,10,05,01,32,4.60
2008,10,05,01,33,3.60
2008,10,05,01,34,2.50
2008,10,05,01,35,0.10
2008,10,05,01,36,0.00
2008,10,05,01,37,0.00
2008,10,05,01,38,0.00
2008,10,05,01,39,0.00
2008,10,05,01,40,0.20
2008,10,05,01,41,3.40
2008,10,05,01,42,3.20
2008,10,05,01,43,1.10
2008,10,05,01,44,0.20
2008,10,05,01,45,0.90
2008,10,05,01,46,0.90
2008,10,05,01,47,0.80
2008,10,05,01,48,1.30
2008,10,05,01,49,1.40
2008,10,05,01,50,1.70
2008,10,05,01,51,1.60
2008,10,05,01,52,1.60
2008,10,05,01,53,0.70
2008,10,05,01,54,2.00
2008,10,05,01,55,2.20
2008,10,05,01,56,1.80
2008,10,05,01,57,0.90
2008,10,05,01,58,0.90
2008,10,05,01,59,1.70
2008,10,05,02,00,2.70
2008,10,05,02,01,4.60
2008,10,05,02,02,2.10
2008,10,05,02,03,0.50
2008,10,05,02,04,0.30
2008,10,05,02,05,1.20
2008,10,05,02,06,1.50
2008,10,05,02,07,0.90
2008,10,05,02,08,0.40
2008,10,05,02,09,0.80
2008,10,05,02,10,1.40
2008,10,05,02,11,2.90
2008,10,05,02,12,2.70
2008,10,05,02,13,0.40
2008,10,05,02,14,0.30
2008,10,05,02,15,1.80
2008,10,05,02,16,1.60
2008,10,05,02,17,1.70
2008,10,05,02,18,1.60
2008,10,05,02,19,0.90
2008,10,05,02,20,1.40
2008,10,05,02,21,2.30
2008,10,05,02,22,1.80
2008,10,05,02,23,1.30
2008,10,05,02,24,0.70
2008,10,05,02,25,1.10
2008,10,05,02,26,0.90
2008,10,05,02,27,1.30
2008,10,05,02,28,2.80
2008,10,05,02,29,1.70
2008,10,05,02,30,1.90
2008,10,05,02,31,0.60
2008,10,05,02,32,0.60
2008,10,05,02,33,0.20
2008,10,05,02,34,2.10
2008,10,05,02,35,2.50
2008,10,05,02,36,2.70
2008,10,05,02,37,2.20
2008,10,05,02,38,3.30
2008,10,05,02,39,4.30
2008,10,05,02,40,2.10
2008,10,05,02,41,2.90
2008,10,05,02,42,3.50
2008,10,05,02,43,2.10
2008,10,05,02,44,1.50
2008,10,05,02,45,0.00
2008,10,05,02,46,0.00
2008,10,05,02,47,0.00
2008,10,05,02,48,1.90
2008,10,05,02,49,2.10
2008,10,05,02,50,1.90
2008,10,05,02,51,1.40
2008,10,05,02,52,0.90
2008,10,05,02,53,0.00
2008,10,05,02,54,0.00
2008,10,05,02,55,0.00
2008,10,05,02,56,0.00
2008,10,05,02,57,3.00
2008,10,05,02,58,3.40
2008,10,05,02,59,2.90
2008,10,05,03,00,3.20
2008,10,05,03,01,2.60
2008,10,05,03,02,1.80
2008,10,05,03,03,1.30
2008,10,05,03,04,0.00
2008,10,05,03,05,0.00
2008,10,05,03,06,0.00
2008,10,05,03,07,0.00
2008,10,05,03,08,0.00
2008,10,05,03,09,0.00
2008,10,05,03,10,0.00
2008,10,05,03,11,0.00
2008,10,05,03,12,0.00
2008,10,05,03,13,0.00
2008,10,05,03,14,0.00
2008,10,05,03,15,0.00
2008,10,05,03,16,0.00
2008,10,05,03,17,0.00
2008,10,05,03,18,1.50
2008,10,05,03,19,2.20
2008,10,05,03,20,2.40
2008,10,05,03,21,1.30
2008,10,05,03,22,2.10
2008,10,05,03,23,2.00
2008,10,05,03,24,2.40
2008,10,05,03,25,3.10
2008,10,05,03,26,2.20
2008,10,05,03,27,2.50
2008,10,05,03,28,2.30
2008,10,05,03,29,0.90
2008,10,05,03,30,0.00
2008,10,05,03,31,0.00
2008,10,05,03,32,0.00
2008,10,05,03,33,1.80
2008,10,05,03,34,2.00
2008,10,05,03,35,0.20
2008,10,05,03,36,0.20
2008,10,05,03,37,0.40
2008,10,05,03,38,1.20
2008,10,05,03,39,1.70
2008,10,05,03,40,1.80
2008,10,05,03,41,3.00
2008,10,05,03,42,4.10
2008,10,05,03,43,3.50
2008,10,05,03,44,3.20
2008,10,05,03,45,2.40
2008,10,05,03,46,3.00
2008,10,05,03,47,1.70
2008,10,05,03,48,1.50
2008,10,05,03,49,0.40
2008,10,05,03,50,0.00
2008,10,05,03,51,0.00
2008,10,05,03,52,0.00
2008,10,05,03,53,0.00
2008,10,05,03,54,0.00
2008,10,05,03,55,2.10
2008,10,05,03,56,3.20
2008,10,05,03,57,2.80
2008,10,05,03,58,1.80
2008,10,05,03,59,2.10
2008,10,05,04,00,2.30
2008,10,05,04,01,3.00
2008,10,05,04,02,3.50
2008,10,05,04,03,4.50
2008,10,05,04,04,3.30
2008,10,05,04,05,1.90
2008,10,05,04,06,2.00
2008,10,05,04,07,1.50
2008,10,05,04,08,1.50
2008,10,05,04,09,2.00
2008,10,05,04,10,2.10
2008,10,05,04,11,1.60
2008,10,05,04,12,0.40
2008,10,05,04,13,0.00
2008,10,05,04,14,0.00
2008,10,05,04,15,0.00
2008,10,05,04,16,0.00
2008,10,05,04,17,0.00
2008,10,05,04,18,0.00
2008,10,05,04,19,0.00
2008,10,05,04,20,0.00
2008,10,05,04,21,0.00
2008,10,05,04,22,0.00
2008,10,05,04,23,0.10
2008,10,05,04,24,2.30
2008,10,05,04,25,2.60
2008,10,05,04,26,2.60
2008,10,05,04,27,2.20
2008,10,05,04,28,2.90
2008,10,05,04,29,2.60
2008,10,05,04,30,1.80
2008,10,05,04,31,1.30
2008,10,05,04,32,0.90
2008,10,05,04,33,0.00
2008,10,05,04,34,1.70
2008,10,05,04,35,2.00
2008,10,05,04,36,1.80
2008,10,05,04,37,0.90
2008,10,05,04,38,0.00
2008,10,05,04,39,0.00
2008,10,05,04,40,0.00
2008,10,05,04,41,0.00
2008,10,05,04,42,0.00
2008,10,05,04,43,0.60
2008,10,05,04,44,0.20
2008,10,05,04,45,0.00
2008,10,05,04,46,0.00
2008,10,05,04,47,0.00
2008,10,05,04,48,0.00
2008,10,05,04,49,0.00
2008,10,05,04,50,0.00
2008,10,05,04,51,0.00
2008,10,05,04,52,0.00
2008,10,05,04,53,0.00
2008,10,05,04,54,0.00
2008,10,05,04,55,0.10
2008,10,05,04,56,2.10
2008,10,05,04,57,2.90
2008,10,05,04,58,1.90
2008,10,05,04,59,0.50
2008,10,05,05,00,0.00
2008,10,05,05,01,0.00
2008,10,05,05,02,0.00
2008,10,05,05,03,0.00
2008,10,05,05,04,0.10
2008,10,05,05,05,0.00
2008,10,05,05,06,2.80
2008,10,05,05,07,6.60
2008,10,05,05,08,5.00
2008,10,05,05,09,5.40
2008,10,05,05,10,4.00
2008,10,05,05,11,7.50
2008,10,05,05,12,6.50
2008,10,05,05,13,3.10
2008,10,05,05,14,2.60
2008,10,05,05,15,2.80
2008,10,05,05,16,3.70
2008,10,05,05,17,3.50
2008,10,05,05,18,2.40
2008,10,05,05,19,3.40
2008,10,05,05,20,3.10
2008,10,05,05,21,2.00
2008,10,05,05,22,2.30
2008,10,05,05,23,0.40
2008,10,05,05,24,0.00
2008,10,05,05,25,0.00
2008,10,05,05,26,1.30
2008,10,05,05,27,2.10
2008,10,05,05,28,3.00
2008,10,05,05,29,2.40
2008,10,05,05,30,2.40
2008,10,05,05,31,2.70
2008,10,05,05,32,6.20
2008,10,05,05,33,6.50
2008,10,05,05,34,6.40
2008,10,05,05,35,3.10
2008,10,05,05,36,1.80
2008,10,05,05,37,1.20
2008,10,05,05,38,3.40
2008,10,05,05,39,5.00
2008,10,05,05,40,4.40
2008,10,05,05,41,3.20
2008,10,05,05,42,4.80
2008,10,05,05,43,3.70
2008,10,05,05,44,3.10
2008,10,05,05,45,2.20
2008,10,05,05,46,2.50
2008,10,05,05,47,2.40
2008,10,05,05,48,1.80
2008,10,05,05,49,1.50
2008,10,05,05,50,0.90
2008,10,05,05,51,1.20
2008,10,05,05,52,2.90
2008,10,05,05,53,2.00
2008,10,05,05,54,2.10
2008,10,05,05,55,3.00
2008,10,05,05,56,3.90
2008,10,05,05,57,4.60
2008,10,05,05,58,1.20
2008,10,05,05,59,0.00
2008,10,05,06,00,0.50
2008,10,05,06,01,1.40
2008,10,05,06,02,0.70
2008,10,05,06,03,1.30
2008,10,05,06,04,2.10
2008,10,05,06,05,1.80
2008,10,05,06,06,1.00
2008,10,05,06,07,0.10
2008,10,05,06,08,1.60
2008,10,05,06,09,1.60
2008,10,05,06,10,1.20
2008,10,05,06,11,1.10
2008,10,05,06,12,0.20
2008,10,05,06,13,0.30
2008,10,05,06,14,0.60
2008,10,05,06,15,0.00
2008,10,05,06,16,0.00
2008,10,05,06,17,0.10
2008,10,05,06,18,0.20
2008,10,05,06,19,1.60
2008,10,05,06,20,1.90
2008,10,05,06,21,2.00
2008,10,05,06,22,2.30
2008,10,05,06,23,1.40
2008,10,05,06,24,1.00
2008,10,05,06,25,0.30
2008,10,05,06,26,0.00
2008,10,05,06,27,0.00
2008,10,05,06,28,0.00
2008,10,05,06,29,0.20
2008,10,05,06,30,0.70
2008,10,05,06,31,0.90
2008,10,05,06,32,1.10
2008,10,05,06,33,0.60
2008,10,05,06,34,0.80
2008,10,05,06,35,0.20
2008,10,05,06,36,0.90
2008,10,05,06,37,0.90
2008,10,05,06,38,1.00
2008,10,05,06,39,0.60
2008,10,05,06,40,1.90
2008,10,05,06,41,3.10
2008,10,05,06,42,2.30
2008,10,05,06,43,1.90
2008,10,05,06,44,1.80
2008,10,05,06,45,2.40
2008,10,05,06,46,2.80
2008,10,05,06,47,2.30
2008,10,05,06,48,1.80
2008,10,05,06,49,1.50
2008,10,05,06,50,0.80
2008,10,05,06,51,1.20
2008,10,05,06,52,1.00
2008,10,05,06,53,0.20
2008,10,05,06,54,0.30
2008,10,05,06,55,1.10
2008,10,05,06,56,0.50
2008,10,05,06,57,0.40
2008,10,05,06,58,0.30
2008,10,05,06,59,0.70
2008,10,05,07,00,1.40
2008,10,05,07,01,1.60
2008,10,05,07,02,2.10
2008,10,05,07,03,1.90
2008,10,05,07,04,1.70
2008,10,05,07,05,1.60
2008,10,05,07,06,1.40
2008,10,05,07,07,0.90
2008,10,05,07,08,1.30
2008,10,05,07,09,1.30
2008,10,05,07,10,1.90
2008,10,05,07,11,1.60
2008,10,05,07,12,1.50
2008,10,05,07,13,2.20
2008,10,05,07,14,1.50
2008,10,05,07,15,2.30
2008,10,05,07,16,3.00
2008,10,05,07,17,2.80
2008,10,05,07,18,2.60
2008,10,05,07,19,2.80
2008,10,05,07,20,2.00
2008,10,05,07,21,1.80
2008,10,05,07,22,1.70
2008,10,05,07,23,1.60
2008,10,05,07,24,1.50
2008,10,05,07,25,0.90
2008,10,05,07,26,0.40
2008,10,05,07,27,0.00
2008,10,05,07,28,0.00
2008,10,05,07,29,0.00
2008,10,05,07,30,0.00
2008,10,05,07,31,0.00
2008,10,05,07,32,0.10
2008,10,05,07,33,0.20
2008,10,05,07,34,0.10
2008,10,05,07,35,0.00
2008,10,05,07,36,0.30
2008,10,05,07,37,0.70
2008,10,05,07,38,0.40
2008,10,05,07,39,2.10
2008,10,05,07,40,1.10
2008,10,05,07,41,0.30
2008,10,05,07,42,0.10
2008,10,05,07,43,0.30
2008,10,05,07,44,0.60
2008,10,05,07,45,0.40
2008,10,05,07,46,0.60
2008,10,05,07,47,1.10
2008,10,05,07,48,0.20
2008,10,05,07,49,1.70
2008,10,05,07,50,0.90
2008,10,05,07,51,0.30
2008,10,05,07,52,0.00
2008,10,05,07,53,0.40
2008,10,05,07,54,1.00
2008,10,05,07,55,0.70
2008,10,05,07,56,0.20
2008,10,05,07,57,0.30
2008,10,05,07,58,0.40
2008,10,05,07,59,1.10
2008,10,05,08,00,1.30
2008,10,05,08,01,1.20
2008,10,05,08,02,1.60
2008,10,05,08,03,0.40
2008,10,05,08,04,0.20
2008,10,05,08,05,1.60
2008,10,05,08,06,2.30
2008,10,05,08,07,1.10
2008,10,05,08,08,0.50
2008,10,05,08,09,1.40
2008,10,05,08,10,1.30
2008,10,05,08,11,0.10
2008,10,05,08,12,4.30
2008,10,05,08,13,2.30
2008,10,05,08,14,0.60
2008,10,05,08,15,0.00
2008,10,05,08,16,0.00
2008,10,05,08,17,0.00
2008,10,05,08,18,0.00
2008,10,05,08,19,0.00
2008,10,05,08,20,0.00
2008,10,05,08,21,1.00
2008,10,05,08,22,0.10
2008,10,05,08,23,3.80
2008,10,05,08,24,4.70
2008,10,05,08,25,2.70
2008,10,05,08,26,1.10
2008,10,05,08,27,0.90
2008,10,05,08,28,0.10
2008,10,05,08,29,0.00
2008,10,05,08,30,0.00
2008,10,05,08,31,0.30
2008,10,05,08,32,0.90
2008,10,05,08,33,4.10
2008,10,05,08,34,1.50
2008,10,05,08,35,2.10
2008,10,05,08,36,0.90
2008,10,05,08,37,0.30
2008,10,05,08,38,1.40
2008,10,05,08,39,0.20
2008,10,05,08,40,1.70
2008,10,05,08,41,2.00
2008,10,05,08,42,1.90
2008,10,05,08,43,1.20
2008,10,05,08,44,0.00
2008,10,05,08,45,0.00
2008,10,05,08,46,0.90
2008,10,05,08,47,2.70
2008,10,05,08,48,2.10
2008,10,05,08,49,1.80
2008,10,05,08,50,2.10
2008,10,05,08,51,2.40
2008,10,05,08,52,1.40
2008,10,05,08,53,3.00
2008,10,05,08,54,0.10
2008,10,05,08,55,1.20
2008,10,05,08,56,0.90
2008,10,05,08,57,0.10
2008,10,05,08,58,1.90
2008,10,05,08,59,1.40
2008,10,05,09,00,0.60
2008,10,05,09,01,1.50
2008,10,05,09,02,1.80
2008,10,05,09,03,2.20
2008,10,05,09,04,1.80
2008,10,05,09,05,1.40
2008,10,05,09,06,0.00
2008,10,05,09,07,0.80
2008,10,05,09,08,1.40
2008,10,05,09,09,0.60
2008,10,05,09,10,1.50
2008,10,05,09,11,0.30
2008,10,05,09,12,0.00
2008,10,05,09,13,0.00
2008,10,05,09,14,0.00
2008,10,05,09,15,0.00
2008,10,05,09,16,0.40
2008,10,05,09,17,1.50
2008,10,05,09,18,1.90
2008,10,05,09,19,2.50
2008,10,05,09,20,3.00
2008,10,05,09,21,2.30
2008,10,05,09,22,4.10
2008,10,05,09,23,3.60
2008,10,05,09,24,2.60
2008,10,05,09,25,5.10
2008,10,05,09,26,2.70
2008,10,05,09,27,1.40
2008,10,05,09,28,3.70
2008,10,05,09,29,4.30
2008,10,05,09,30,3.90
2008,10,05,09,31,5.70
2008,10,05,09,32,3.10
2008,10,05,09,33,2.30
2008,10,05,09,34,0.50
2008,10,05,09,35,1.90
2008,10,05,09,36,2.10
2008,10,05,09,37,2.20
2008,10,05,09,38,2.10
2008,10,05,09,39,3.10
2008,10,05,09,40,4.00
2008,10,05,09,41,5.10
2008,10,05,09,42,3.70
2008,10,05,09,43,3.40
2008,10,05,09,44,1.00
2008,10,05,09,45,1.30
2008,10,05,09,46,0.70
2008,10,05,09,47,4.20
2008,10,05,09,48,0.50
2008,10,05,09,49,2.90
2008,10,05,09,50,3.20
2008,10,05,09,51,3.90
2008,10,05,09,52,6.10
2008,10,05,09,53,3.20
2008,10,05,09,54,2.50
2008,10,05,09,55,4.50
2008,10,05,09,56,5.00
2008,10,05,09,57,1.90
2008,10,05,09,58,3.00
2008,10,05,09,59,6.50
2008,10,05,10,00,4.70
2008,10,05,10,01,2.90
2008,10,05,10,02,3.90
2008,10,05,10,03,7.70
2008,10,05,10,04,3.10
2008,10,05,10,05,3.90
2008,10,05,10,06,5.50
2008,10,05,10,07,1.30
2008,10,05,10,08,2.20
2008,10,05,10,09,4.60
2008,10,05,10,10,2.50
2008,10,05,10,11,4.00
2008,10,05,10,12,3.20
2008,10,05,10,13,3.50
2008,10,05,10,14,4.90
2008,10,05,10,15,6.40
2008,10,05,10,16,1.30
2008,10,05,10,17,3.80
2008,10,05,10,18,1.60
2008,10,05,10,19,2.70
2008,10,05,10,20,0.20
2008,10,05,10,21,1.30
2008,10,05,10,22,0.80
2008,10,05,10,23,3.70
2008,10,05,10,24,6.00
2008,10,05,10,25,1.00
2008,10,05,10,26,3.70
2008,10,05,10,27,8.00
2008,10,05,10,28,8.20
2008,10,05,10,29,5.10
2008,10,05,10,30,4.00
2008,10,05,10,31,6.40
2008,10,05,10,32,6.00
2008,10,05,10,33,8.40
2008,10,05,10,34,11.30
2008,10,05,10,35,4.70
2008,10,05,10,36,3.50
2008,10,05,10,37,1.20
2008,10,05,10,38,4.10
2008,10,05,10,39,7.20
2008,10,05,10,40,3.40
2008,10,05,10,41,7.30
2008,10,05,10,42,8.10
2008,10,05,10,43,10.10
2008,10,05,10,44,7.70
2008,10,05,10,45,5.10
2008,10,05,10,46,2.80
2008,10,05,10,47,0.50
2008,10,05,10,48,5.80
2008,10,05,10,49,9.50
2008,10,05,10,50,6.40
2008,10,05,10,51,4.20
2008,10,05,10,52,5.50
2008,10,05,10,53,2.60
2008,10,05,10,54,9.40
2008,10,05,10,55,9.20
2008,10,05,10,56,8.30
2008,10,05,10,57,8.30
2008,10,05,10,58,6.40
2008,10,05,10,59,4.30
2008,10,05,11,00,5.10
2008,10,05,11,01,7.40
2008,10,05,11,02,9.70
2008,10,05,11,03,5.50
2008,10,05,11,04,5.40
2008,10,05,11,05,7.50
2008,10,05,11,06,1.20
2008,10,05,11,07,0.10
2008,10,05,11,08,0.20
2008,10,05,11,09,0.50
2008,10,05,11,10,0.30
2008,10,05,11,11,2.60
2008,10,05,11,12,2.40
2008,10,05,11,13,0.60
2008,10,05,11,14,0.40
2008,10,05,11,15,1.50
2008,10,05,11,16,0.00
2008,10,05,11,17,0.10
2008,10,05,11,18,0.60
2008,10,05,11,19,6.90
2008,10,05,11,20,5.40
2008,10,05,11,21,2.70
2008,10,05,11,22,0.50
2008,10,05,11,23,0.40
2008,10,05,11,24,0.80
2008,10,05,11,25,1.10
2008,10,05,11,26,1.70
2008,10,05,11,27,1.90
2008,10,05,11,28,2.50
2008,10,05,11,29,1.40
2008,10,05,11,30,5.50
2008,10,05,11,31,3.50
2008,10,05,11,32,2.60
2008,10,05,11,33,1.70
2008,10,05,11,34,4.70
2008,10,05,11,35,5.00
2008,10,05,11,36,8.10
2008,10,05,11,37,8.10
2008,10,05,11,38,6.70
2008,10,05,11,39,2.00
2008,10,05,11,40,1.50
2008,10,05,11,41,4.60
2008,10,05,11,42,4.70
2008,10,05,11,43,0.80
2008,10,05,11,44,0.00
2008,10,05,11,45,3.10
2008,10,05,11,46,2.50
2008,10,05,11,47,1.10
2008,10,05,11,48,5.80
2008,10,05,11,49,1.30
2008,10,05,11,50,6.50
2008,10,05,11,51,1.10
2008,10,05,11,52,3.60
2008,10,05,11,53,7.60
2008,10,05,11,54,2.80
2008,10,05,11,55,0.20
2008,10,05,11,56,0.00
2008,10,05,11,57,0.40
2008,10,05,11,58,1.90
2008,10,05,11,59,2.60
2008,10,05,12,00,2.10
2008,10,05,12,01,0.00
2008,10,05,12,02,0.20
2008,10,05,12,03,2.00
2008,10,05,12,04,8.90
2008,10,05,12,05,13.90
2008,10,05,12,06,12.90
2008,10,05,12,07,6.60
2008,10,05,12,08,8.90
2008,10,05,12,09,8.90
2008,10,05,12,10,10.10
2008,10,05,12,11,13.80
2008,10,05,12,12,9.70
2008,10,05,12,13,4.40
2008,10,05,12,14,4.30
2008,10,05,12,15,9.20
2008,10,05,12,16,7.50
2008,10,05,12,17,4.80
2008,10,05,12,18,14.30
2008,10,05,12,19,7.60
2008,10,05,12,20,7.50
2008,10,05,12,21,9.80
2008,10,05,12,22,7.90
2008,10,05,12,23,8.50
2008,10,05,12,24,7.90
2008,10,05,12,25,7.60
2008,10,05,12,26,7.40
2008,10,05,12,27,9.80
2008,10,05,12,28,10.90
2008,10,05,12,29,10.30
2008,10,05,12,30,8.10
2008,10,05,12,31,11.60
2008,10,05,12,32,8.10
2008,10,05,12,33,7.20
2008,10,05,12,34,8.90
2008,10,05,12,35,8.50
2008,10,05,12,36,12.80
2008,10,05,12,37,13.40
2008,10,05,12,38,16.10
2008,10,05,12,39,12.10
2008,10,05,12,40,12.70
2008,10,05,12,41,13.10
2008,10,05,12,42,12.30
2008,10,05,12,43,13.30
2008,10,05,12,44,9.40
2008,10,05,12,45,7.50
2008,10,05,12,46,6.60
2008,10,05,12,47,7.10
2008,10,05,12,48,9.70
2008,10,05,12,49,5.40
2008,10,05,12,50,10.10
2008,10,05,12,51,7.00
2008,10,05,12,52,7.90
2008,10,05,12,53,6.20
2008,10,05,12,54,5.70
2008,10,05,12,55,8.00
2008,10,05,12,56,6.70
2008,10,05,12,57,7.90
2008,10,05,12,58,10.00
2008,10,05,12,59,6.30
2008,10,05,13,00,3.40
2008,10,05,13,01,4.40
2008,10,05,13,02,1.60
2008,10,05,13,03,6.90
2008,10,05,13,04,11.80
2008,10,05,13,05,10.80
2008,10,05,13,06,6.50
2008,10,05,13,07,6.10
2008,10,05,13,08,4.10
2008,10,05,13,09,6.80
2008,10,05,13,10,10.50
2008,10,05,13,11,6.90
2008,10,05,13,12,9.40
2008,10,05,13,13,7.00
2008,10,05,13,14,4.10
2008,10,05,13,15,7.60
2008,10,05,13,16,5.00
2008,10,05,13,17,8.00
2008,10,05,13,18,3.00
2008,10,05,13,19,3.20
2008,10,05,13,20,2.10
2008,10,05,13,21,1.00
2008,10,05,13,22,3.60
2008,10,05,13,23,5.90
2008,10,05,13,24,11.20
2008,10,05,13,25,11.10
2008,10,05,13,26,10.30
2008,10,05,13,27,6.50
2008,10,05,13,28,5.50
2008,10,05,13,29,3.10
2008,10,05,13,30,8.00
2008,10,05,13,31,5.60
2008,10,05,13,32,10.40
2008,10,05,13,33,9.40
2008,10,05,13,34,8.90
2008,10,05,13,35,7.10
2008,10,05,13,36,8.40
2008,10,05,13,37,4.20
2008,10,05,13,38,8.90
2008,10,05,13,39,7.10
2008,10,05,13,40,8.10
2008,10,05,13,41,12.20
2008,10,05,13,42,12.90
2008,10,05,13,43,8.90
2008,10,05,13,44,2.90
2008,10,05,13,45,9.30
2008,10,05,13,46,9.40
2008,10,05,13,47,15.40
2008,10,05,13,48,12.90
2008,10,05,13,49,13.30
2008,10,05,13,50,13.10
2008,10,05,13,51,7.70
2008,10,05,13,52,11.70
2008,10,05,13,53,12.10
2008,10,05,13,54,10.80
2008,10,05,13,55,8.60
2008,10,05,13,56,9.90
2008,10,05,13,57,13.00
2008,10,05,13,58,11.20
2008,10,05,13,59,13.40
2008,10,05,14,00,10.40
2008,10,05,14,01,12.20
2008,10,05,14,02,8.50
2008,10,05,14,03,12.60
2008,10,05,14,04,11.30
2008,10,05,14,05,13.40
2008,10,05,14,06,7.40
2008,10,05,14,07,10.80
2008,10,05,14,08,5.60
2008,10,05,14,09,4.80
2008,10,05,14,10,4.30
2008,10,05,14,11,13.00
2008,10,05,14,12,11.20
2008,10,05,14,13,12.20
2008,10,05,14,14,16.00
2008,10,05,14,15,7.70
2008,10,05,14,16,11.20
2008,10,05,14,17,14.20
2008,10,05,14,18,12.70
2008,10,05,14,19,11.10
2008,10,05,14,20,13.60
2008,10,05,14,21,9.60
2008,10,05,14,22,11.20
2008,10,05,14,23,10.90
2008,10,05,14,24,9.80
2008,10,05,14,25,9.70
2008,10,05,14,26,8.00
2008,10,05,14,27,5.60
2008,10,05,14,28,12.40
2008,10,05,14,29,12.20
2008,10,05,14,30,10.70
2008,10,05,14,31,10.50
2008,10,05,14,32,12.30
2008,10,05,14,33,7.20
2008,10,05,14,34,10.90
2008,10,05,14,35,7.50
2008,10,05,14,36,8.30
2008,10,05,14,37,11.70
2008,10,05,14,38,8.70
2008,10,05,14,39,10.70
2008,10,05,14,40,6.30
2008,10,05,14,41,6.70
2008,10,05,14,42,8.60
2008,10,05,14,43,4.00
2008,10,05,14,44,10.40
2008,10,05,14,45,12.20
2008,10,05,14,46,12.70
2008,10,05,14,47,10.00
2008,10,05,14,48,10.30
2008,10,05,14,49,7.00
2008,10,05,14,50,5.10
2008,10,05,14,51,3.00
2008,10,05,14,52,8.30
2008,10,05,14,53,8.20
2008,10,05,14,54,6.30
2008,10,05,14,55,9.60
2008,10,05,14,56,10.40
2008,10,05,14,57,8.80
2008,10,05,14,58,7.80
2008,10,05,14,59,6.50
2008,10,05,15,00,6.40
2008,10,05,15,01,7.20
2008,10,05,15,02,9.70
2008,10,05,15,03,6.40
2008,10,05,15,04,8.00
2008,10,05,15,05,4.70
2008,10,05,15,06,3.30
2008,10,05,15,07,2.00
2008,10,05,15,08,0.20
2008,10,05,15,09,5.20
2008,10,05,15,10,6.20
2008,10,05,15,11,5.60
2008,10,05,15,12,2.60
2008,10,05,15,13,7.40
2008,10,05,15,14,4.90
2008,10,05,15,15,6.00
2008,10,05,15,16,3.00
2008,10,05,15,17,2.20
2008,10,05,15,18,5.10
2008,10,05,15,19,2.40
2008,10,05,15,20,3.20
2008,10,05,15,21,5.50
2008,10,05,15,22,6.80
2008,10,05,15,23,4.50
2008,10,05,15,24,6.40
2008,10,05,15,25,6.90
2008,10,05,15,26,5.40
2008,10,05,15,27,7.30
2008,10,05,15,28,7.80
2008,10,05,15,29,6.00
2008,10,05,15,30,5.70
2008,10,05,15,31,6.60
2008,10,05,15,32,3.20
2008,10,05,15,33,2.90
2008,10,05,15,34,5.10
2008,10,05,15,35,8.10
2008,10,05,15,36,4.20
2008,10,05,15,37,6.10
2008,10,05,15,38,9.00
2008,10,05,15,39,7.20
2008,10,05,15,40,8.00
2008,10,05,15,41,7.90
2008,10,05,15,42,8.60
2008,10,05,15,43,2.70
2008,10,05,15,44,3.60
2008,10,05,15,45,6.80
2008,10,05,15,46,7.80
2008,10,05,15,47,8.00
2008,10,05,15,48,8.40
2008,10,05,15,49,8.50
2008,10,05,15,50,9.90
2008,10,05,15,51,8.10
2008,10,05,15,52,6.80
2008,10,05,15,53,6.20
2008,10,05,15,54,5.90
2008,10,05,15,55,7.60
2008,10,05,15,56,6.90
2008,10,05,15,57,7.80
2008,10,05,15,58,4.70
2008,10,05,15,59,7.70
2008,10,05,16,00,6.30
2008,10,05,16,01,6.00
2008,10,05,16,02,2.90
2008,10,05,16,03,4.20
2008,10,05,16,04,7.00
2008,10,05,16,05,8.00
2008,10,05,16,06,8.60
2008,10,05,16,07,9.60
2008,10,05,16,08,8.40
2008,10,05,16,09,8.90
2008,10,05,16,10,5.60
2008,10,05,16,11,5.60
2008,10,05,16,12,8.60
2008,10,05,16,13,3.10
2008,10,05,16,14,5.70
2008,10,05,16,15,4.80
2008,10,05,16,16,3.80
2008,10,05,16,17,4.80
2008,10,05,16,18,5.40
2008,10,05,16,19,4.50
2008,10,05,16,20,4.40
2008,10,05,16,21,7.30
2008,10,05,16,22,0.80
2008,10,05,16,23,2.40
2008,10,05,16,24,6.10
2008,10,05,16,25,3.70
2008,10,05,16,26,4.90
2008,10,05,16,27,5.70
2008,10,05,16,28,4.60
2008,10,05,16,29,3.60
2008,10,05,16,30,4.40
2008,10,05,16,31,4.10
2008,10,05,16,32,4.90
2008,10,05,16,33,5.80
2008,10,05,16,34,6.20
2008,10,05,16,35,3.90
2008,10,05,16,36,1.80
2008,10,05,16,37,2.80
2008,10,05,16,38,2.30
2008,10,05,16,39,1.30
2008,10,05,16,40,1.90
2008,10,05,16,41,0.00
2008,10,05,16,42,0.20
2008,10,05,16,43,0.00
2008,10,05,16,44,0.00
2008,10,05,16,45,0.10
2008,10,05,16,46,0.20
2008,10,05,16,47,1.30
2008,10,05,16,48,0.40
2008,10,05,16,49,0.40
2008,10,05,16,50,0.20
2008,10,05,16,51,0.70
2008,10,05,16,52,0.00
2008,10,05,16,53,0.00
2008,10,05,16,54,0.00
2008,10,05,16,55,0.00
2008,10,05,16,56,0.50
2008,10,05,16,57,1.20
2008,10,05,16,58,0.30
2008,10,05,16,59,0.00
2008,10,05,17,00,0.10
2008,10,05,17,01,1.40
2008,10,05,17,02,1.30
2008,10,05,17,03,2.20
2008,10,05,17,04,3.00
2008,10,05,17,05,2.60
2008,10,05,17,06,1.90
2008,10,05,17,07,2.00
2008,10,05,17,08,0.10
2008,10,05,17,09,0.10
2008,10,05,17,10,0.00
2008,10,05,17,11,1.60
2008,10,05,17,12,2.80
2008,10,05,17,13,1.10
2008,10,05,17,14,0.00
2008,10,05,17,15,0.00
2008,10,05,17,16,0.00
2008,10,05,17,17,0.70
2008,10,05,17,18,2.10
2008,10,05,17,19,2.40
2008,10,05,17,20,4.90
2008,10,05,17,21,3.50
2008,10,05,17,22,1.10
2008,10,05,17,23,2.30
2008,10,05,17,24,0.00
2008,10,05,17,25,0.50
2008,10,05,17,26,3.50
2008,10,05,17,27,3.10
2008,10,05,17,28,7.00
2008,10,05,17,29,6.50
2008,10,05,17,30,2.70
2008,10,05,17,31,1.80
2008,10,05,17,32,1.60
2008,10,05,17,33,2.70
2008,10,05,17,34,2.10
2008,10,05,17,35,1.30
2008,10,05,17,36,0.80
2008,10,05,17,37,5.90
2008,10,05,17,38,2.00
2008,10,05,17,39,1.50
2008,10,05,17,40,2.10
2008,10,05,17,41,0.20
2008,10,05,17,42,2.80
2008,10,05,17,43,3.30
2008,10,05,17,44,3.50
2008,10,05,17,45,6.60
2008,10,05,17,46,3.40
2008,10,05,17,47,6.70
2008,10,05,17,48,6.00
2008,10,05,17,49,3.40
2008,10,05,17,50,2.00
2008,10,05,17,51,2.70
2008,10,05,17,52,5.50
2008,10,05,17,53,4.80
2008,10,05,17,54,5.40
2008,10,05,17,55,3.10
2008,10,05,17,56,3.10
2008,10,05,17,57,2.10
2008,10,05,17,58,8.10
2008,10,05,17,59,6.90
2008,10,05,18,00,2.80
2008,10,05,18,01,5.40
2008,10,05,18,02,5.10
2008,10,05,18,03,2.80
2008,10,05,18,04,2.10
2008,10,05,18,05,2.00
2008,10,05,18,06,0.30
2008,10,05,18,07,6.40
2008,10,05,18,08,9.00
2008,10,05,18,09,2.00
2008,10,05,18,10,3.70
2008,10,05,18,11,7.80
2008,10,05,18,12,4.90
2008,10,05,18,13,4.20
2008,10,05,18,14,8.70
2008,10,05,18,15,8.10
2008,10,05,18,16,5.60
2008,10,05,18,17,1.40
2008,10,05,18,18,2.20
2008,10,05,18,19,1.90
2008,10,05,18,20,2.30
2008,10,05,18,21,4.70
2008,10,05,18,22,6.60
2008,10,05,18,23,6.90
2008,10,05,18,24,0.60
2008,10,05,18,25,0.00
2008,10,05,18,26,0.80
2008,10,05,18,27,0.30
2008,10,05,18,28,0.00
2008,10,05,18,29,0.00
2008,10,05,18,30,0.00
2008,10,05,18,31,0.00
2008,10,05,18,32,2.20
2008,10,05,18,33,2.00
2008,10,05,18,34,2.10
2008,10,05,18,35,2.70
2008,10,05,18,36,2.10
2008,10,05,18,37,2.80
2008,10,05,18,38,3.70
2008,10,05,18,39,3.30
2008,10,05,18,40,4.00
2008,10,05,18,41,1.80
2008,10,05,18,42,0.10
2008,10,05,18,43,0.00
2008,10,05,18,44,1.50
2008,10,05,18,45,0.00
2008,10,05,18,46,2.70
2008,10,05,18,47,1.30
2008,10,05,18,48,2.00
2008,10,05,18,49,0.40
2008,10,05,18,50,2.10
2008,10,05,18,51,1.00
2008,10,05,18,52,2.10